User: anonymous   Login
Location: Asheville, NC
(35.6000°N, 82.5500°W)
Time: 21:56:33
(UTC-04:00)
Language:

UWE-3 - Orbit

View from above orbital plane
View from above orbital plane
View from above satellite
View from above satellite

Ground track
Ground track

The orbit data is extracted from the following two-line orbital elements,

1 39446U 13066AG  18227.86610878  .00000164  00000-0  28636-4 0  9996
2 39446  97.5909 246.0141 0069674 342.4170  17.4631 14.78239022253930
Epoch (UTC): 15 August 2018 20:47:11
Eccentricity: 0.0069674
inclination: 97.5909°
perigee height: 586 km
apogee height: 684 km
right ascension of ascending node: 246.0141°
argument of perigee: 342.4170°
revolutions per day: 14.78239022
mean anomaly at epoch: 17.4631°
orbit number at epoch: 25393

The dashed part of the orbit path shows where the satellite is in the earth's shadow,  

DLR